Other Public Products
Issued by NWS Grand Forks, ND

Home | Current Version | Previous Version | Graphics & Text | Print | Product List | Glossary On
Versions: 1 2 3 4 5 6 7 8 9 10 11 12 13 14 15 16 17 18 19 20 21 22 23 24 25 26 27 28 29 30 31 32 33 34 35 36 37 38 39 40 41 42 43 44 45 46 47 48 49 50
000
FPUS83 KFGF 192110
OPUFGF
PRAIRIE TO PINES WEATHER ROUNDUP
NATIONAL WEATHER SERVICE EASTERN NORTH DAKOTA/GRAND FORKS ND
300 PM CST FRI DEC 19 2014

 **SATELLITE DATA USED TO AUGMENT SKY COVER AT AUTOMATED STATIONS**
 *****  WEATHER ACROSS EASTERN NORTH DAKOTA  *****

CITY           SKY/WX    TMP DP  RH WIND       PRES   REMARKS
GRAND FORKS    FOG       28  27  96 S9        30.00F VSB 1   WCI  19
GRAND FORKS AF CLOUDY    28  28 100 S10       30.00S FOG     WCI  19
GRAND CITY NWS   N/A     27 N/A N/A S6          N/A  WCI  20
BUXTON         NOT AVBL
DEVILS LAKE    CLOUDY    27  21  80 S5        29.92S WCI  21
FARGO          CLOUDY    31  27  85 S10       30.02S FOG     WCI  22
WAHPETON ARPT  CLOUDY    30  28  93 S9        30.04S WCI  22
$$

 *****  WEATHER ACROSS CENTRAL AND WESTERN NORTH DAKOTA  *****

CITY           SKY/WX    TMP DP  RH WIND       PRES   REMARKS
JAMESTOWN      CLOUDY    31  27  85 S7        29.93S WCI  24
BISMARCK       MOSUNNY   38  28  67 CALM      29.92S
MINOT          CLOUDY    27  25  92 CALM      29.92R FOG
MINOT AFB      CLOUDY    27  27 100 NW3       29.91S
GARRISON         N/A     28  26  92 CALM      29.91R
WILLISTON      CLOUDY    26  24  92 E3        29.90F FOG
DICKINSON      SUNNY     44  28  53 W9        29.86S
HETTINGER      SUNNY     44  27  51 W8        29.90F
$$

 *****  OTHER OBSERVATIONS NORTHEAST NORTH DAKOTA  *****

CITY           SKY/WX    TMP DP  RH WIND       PRES   REMARKS
WALHALLA         N/A     27  27 100 SE6       30.00R FOG     WCI  20
LANGDON        FOG       27  25  93 MISG      29.94S VSB 1/2
CAVALIER       FOG       27  27 100 S7        30.00S VSB 1/2 WCI  19
GRAFTON        NOT AVBL
CANDO          CLOUDY    27  27 100 S5        29.94S FOG     WCI  21
FORT TOTTEN    NOT AVBL
ROLLA          CLOUDY    27  27 100 S3        29.92S
RUGBY          CLOUDY    27  27 100 CALM      29.93S
 ***** THE ABOVE OBSERVATIONS ARE NON NWS ARE NOT QUALITY
        CONTROLLED AND MAY MIS-REPORT RAIN FOR SNOW...
$$

 *****  OTHER OBSERVATIONS SOUTHEAST NORTH DAKOTA *****

CITY           SKY/WX    TMP DP  RH WIND       PRES   REMARKS
COOPERSTOWN    NOT AVBL
VALLEY CITY    CLOUDY    28  28 100 S13       29.96R FOG     WCI  18
OAKES            N/A     30  30 100 S12       29.98S FOG     WCI  21
GWINNER        CLOUDY    32  32 100 MISG      30.00S
SHEYENNE NWR     N/A     31  28  90 S8        29.95S WCI  23
BUFFALO        NOT AVBL
WYNDMERE         N/A     32  28  86 S8          N/A  WCI  25
 ***** THE ABOVE OBSERVATIONS ARE NON NWS ARE NOT QUALITY
       CONTROLLED AND MAY MIS-REPORT RAIN FOR SNOW...
$$

  *****  WEATHER ACROSS NORTHERN MINNESOTA  *****

CITY           SKY/WX    TMP DP  RH WIND       PRES   REMARKS
FLAG ISLAND    CLOUDY    23  19  86 S17       30.06S FOG     WCI   9
WARROAD        CLOUDY    25  19  80 SE8       30.06S FOG     WCI  16
ROSEAU         CLOUDY    27  21  80 SE8       30.04F HAZE    WCI  18
HALLOCK        CLOUDY    28  27  93 S10       30.01S FOG     WCI  19
THF RVR FALLS  CLOUDY    25  25 100 SE12      30.03S WCI  14
HALSTAD          N/A     30  27  88 S15         N/A  WCI  19
FOSSTON        CLOUDY    25  21  86 SE8       30.04S FOG     WCI  16
BAUDETTE       CLOUDY    24  20  84 S6        30.07S WCI  17
WASKISH        CLOUDY    25  21  86 CALM      30.08S FOG
CROOKSTON      CLOUDY    27  27 100 S9        30.03F FOG     WCI  17
$$
  *****  WEATHER ACROSS CENTRAL AND WEST MINNESOTA  *****

CITY           SKY/WX    TMP DP  RH WIND       PRES   REMARKS
BEMIDJI        FOG       22  22  97 SE10      30.05F VSB 1   WCI  12
PARK RAPIDS    FOG       25  23  92 S12       30.06S VSB 3/4 WCI  14
WADENA         FOG       25  25 100 SE7       30.06F VSB 3/4 WCI  17
DETROIT LAKES  CLOUDY    28  28 100 SE10      30.04S FOG     WCI  19
MOORHEAD       CLOUDY    30  30 100 S14       30.04R FOG     WCI  20
FERGUS FALLS   CLOUDY    28  27  93 S15       30.08S FOG     WCI  17
ELBOW LAKE     CLOUDY    29  28  94 S17       30.05S FOG     WCI  17
MORRIS MN      PTSUNNY   30  28  93 S14       30.06S FOG     WCI  20
STAPLES        CLOUDY    23  23 100 SE7       30.08F FOG     WCI  15
WHEATON        CLOUDY    28  27  93 SE13      30.06F FOG     WCI  18
$$
  *****  WEATHER ELSEWHERE ACROSS MINNESOTA  *****

CITY           SKY/WX    TMP DP  RH WIND       PRES   REMARKS
DULUTH         FLURRIES  24  19  81 SE8       30.15F WCI  15
INTRNTL FALLS  CLOUDY    24  19  81 S7        30.11S WCI  16
ELY            CLOUDY    23  19  86 S5        30.14S WCI  17
CLOQUET        CLOUDY    25  19  80 SE3       30.15S
BRAINERD       CLOUDY    24  22  91 SE6       30.11F FOG     WCI  17
HIBBING        CLOUDY    25  19  78 S7        30.13S WCI  17
ALEXANDRIA     CLOUDY    29  27  92 S13       30.07S FOG     WCI  19
SAINT CLOUD    CLOUDY    29  23  78 SE9       30.13F HAZE    WCI  20
MINNEAPOLIS    CLOUDY    28  23  81 SE10      30.19F WCI  19
$$

  *****  WEATHER ACROSS SOUTH DAKOTA  *****

CITY           SKY/WX    TMP DP  RH WIND       PRES   REMARKS
SIOUX FALLS    CLOUDY    30  28  92 S16       30.08F WCI  19
BROOKINGS      NOT AVBL
WATERTOWN      CLOUDY    28  27  96 S17       30.01F FOG     WCI  16
HURON          CLOUDY    30  28  92 S13       30.02F FOG     WCI  20
SISSETON         N/A     31  28  89 S12       30.02S WCI  22
ABERDEEN       CLOUDY    30  26  85 S17       29.99F FOG     WCI  18
MITCHELL       CLOUDY    31  29  92 S15       30.04F FOG     WCI  20
PIERRE         PTSUNNY   28  24  85 SE7       29.95F WCI  21
MOBRIDGE       MOSUNNY   34  28  79 SE6       29.90F
RAPID CITY     CLOUDY    45  26  47 E3        29.94R
$$

  *****  SOME WEATHER IN NEARBY STATES *****

CITY           SKY/WX    TMP DP  RH WIND       PRES   REMARKS
GLASGOW MT     SUNNY     38  27  64 E3        29.85F
GREAT FALLS MT PTSUNNY   48  28  46 SW17      29.77F
CHEYENNE WY    SUNNY     39  14  36 W28G37    29.99S
SCOTTSBLUFF NE SUNNY     38  26  62 W12       29.97F
OMAHA NE       CLOUDY    33  28  81 S13       30.18F WCI  24
DES MOINES IA  CLOUDY    33  27  78 SE7       30.22F
DAVENPORT IA   CLOUDY    30  19  63 S3        30.30R
CHICAGO IL     CLOUDY    31  21  66 CALM      30.26R
EAU CLAIRE WI  CLOUDY    27  19  72 SE6       30.23S WCI  20
LA CROSSE WI   CLOUDY    30  20  66 S6        30.25F WCI  24
$$

  *****  SOME NATIONAL WEATHER *****

CITY           SKY/WX    TMP DP  RH WIND       PRES   REMARKS
LA GUARDIA NY  PTCLDY    36  22  56 NW15      30.07R
RALEIGH NC     MOCLDY    50  25  37 N5        30.13S
ATLANTA GA     CLOUDY    53  35  50 NW5       30.09F
NEW ORLEANS LA LGT RAIN  54  51  90 NE14      30.05S
OKLAHOMA CITY  CLOUDY    42  37  82 N5        30.18S
ALBUQUERQUE NM MOSUNNY   44  24  45 NW21G28   30.18F
SALT LAKE CITY PTSUNNY   46  27  47 S13       30.12F
LOS ANGELES CA PTSUNNY   61  48  62 W10       30.19F
BOISE ID       CLOUDY    42  36  79 SE17G26   30.04F
SEATTLE WA     PTSUNNY   50  40  68 S13G18    29.96R
$$

*** WEATHER ACROSS MANITOBA...SASKATCHEWAN AND ONTARIO ***
                ***ONTARIO***

CITY           SKY/WX    TMP DP  RH WIND       PRES   REMARKS
GERALDTON      PTCLDY    18  12  79 SE2       30.24R
THUNDER BAY    FLURRIES  19  16  86 CALM      30.25S
SIOUX LOOKOUT  NOT AVBL
TORONTO        MOCLDY    30  21  69 N9        30.19S WCI  22
BIG TROUT LK   FLURRIES  14  14 100 SW7       30.13S WCI   4
PICKLE LAKE    FLURRIES  19  16  86 SW10      30.13S WCI   8
DRYDEN         FLURRIES  23  19  86 S12       30.10S WCI  12
KENORA         NOT AVBL
$$
                *** MANITOBA***

CITY           SKY/WX    TMP DP  RH WIND       PRES   REMARKS
BRANDON        NOT AVBL
DAUPHIN        FLURRIES  23  19  86 SW3       29.99R
ISLAND LAKE    FLURRIES  14  10  85 SE6       30.07S WCI   5
PILOT MOUND      N/A     27  27 100 S1          N/A
THE PAS        NOT AVBL
THOMPSON       NOT AVBL
WINNIPEG       NOT AVBL
LYNN LAKE      CLOUDY    16  16 100 W7        29.92S WCI   6
CHURCHILL      FLURRIES  14  10  85 SW7       29.92R WCI   4
$$
                ***SASKATCHEWAN***

CITY           SKY/WX    TMP DP  RH WIND       PRES   REMARKS
ESTEVAN        FOG       23  21  93 W6        29.91R VSB 3/8 WCI  16
KINDERSLEY     NOT AVBL
LLOYDMINSTER   PTSUNNY   14  10  85 E9        29.77F WCI   2
PRINCE ALBERT  LGT SNOW  18  16  93 S5        29.93S VSB 1   WCI  11
REGINA         NOT AVBL
YORKTON        CLOUDY    23  21  93 W6        29.92S WCI  16


USA.gov is the U.S. government's official web portal to all federal, state and local government web resources and services.